NOZ372 ENGM-ENTC

Flight info

Callsign NOZ372
Flight time 1h 33m
Altitude 37000
Route RIBBE DCT GIGNI DCT SOMUB DCT PENNO DCT ATWEG
Aircraft B738/M-SDE2E3FGHIRWXY/LB1

Departure

Time 2026-05-04 11:58
Airport Oslo-Gardermoen International Airport (ENGM)

Arrival

Time 2026-05-04 13:31
Airport Tromsø Airport (ENTC)
Time Latitude Longitude Altitude Speed Heading
2026-05-04 11:27 60.19588 11.09278 678 ft 0 kts 197°
2026-05-04 11:45 60.19607 11.09290 677 ft 4 kts 199°
2026-05-04 11:45 60.19632 11.09308 676 ft 4 kts 202°
2026-05-04 11:45 60.19656 11.09331 677 ft 4 kts 211°
2026-05-04 11:45 60.19677 11.09363 679 ft 4 kts 237°
2026-05-04 11:46 60.19683 11.09395 676 ft 0 kts 285°
2026-05-04 11:52 60.19685 11.09379 676 ft 3 kts 286°
2026-05-04 11:52 60.19693 11.09321 679 ft 6 kts 286°
2026-05-04 11:52 60.19710 11.09201 678 ft 12 kts 285°
2026-05-04 11:53 60.19740 11.08991 678 ft 18 kts 286°
2026-05-04 11:53 60.19764 11.08828 676 ft 16 kts 285°
2026-05-04 11:53 60.19870 11.08728 677 ft 15 kts 15°
2026-05-04 11:53 60.19971 11.08787 674 ft 15 kts 15°
2026-05-04 11:55 60.20846 11.09289 683 ft 22 kts 16°
2026-05-04 11:55 60.20994 11.09374 682 ft 22 kts 16°
2026-05-04 11:56 60.21137 11.09459 682 ft 21 kts 15°
2026-05-04 11:56 60.21277 11.09540 681 ft 21 kts 16°
2026-05-04 11:56 60.21413 11.09617 681 ft 20 kts 15°
2026-05-04 11:56 60.21514 11.09600 679 ft 14 kts 322°
2026-05-04 11:57 60.21558 11.09429 683 ft 14 kts 284°
2026-05-04 11:57 60.21576 11.09246 683 ft 13 kts 264°
2026-05-04 11:57 60.21518 11.09116 683 ft 14 kts 195°
2026-05-04 11:57 60.21347 11.09017 681 ft 53 kts 196°
2026-05-04 11:58 60.20759 11.08672 677 ft 121 kts 195°
2026-05-04 11:58 60.19770 11.08124 729 ft 167 kts 201°
2026-05-04 11:58 60.18660 11.07480 1450 ft 164 kts 206°
2026-05-04 11:58 60.17586 11.06750 2243 ft 163 kts 205°
2026-05-04 11:59 60.16503 11.05864 2650 ft 179 kts 223°
2026-05-04 11:59 60.15807 11.03721 2975 ft 191 kts 252°
2026-05-04 11:59 60.15360 11.01052 3213 ft 212 kts 254°
2026-05-04 11:59 60.14798 10.98199 3389 ft 234 kts 249°
2026-05-04 12:00 60.14265 10.95040 3861 ft 244 kts 268°
2026-05-04 12:00 60.14456 10.91664 4708 ft 244 kts 281°
2026-05-04 12:00 60.14769 10.88339 5554 ft 243 kts 281°
2026-05-04 12:00 60.15108 10.84956 6280 ft 247 kts 286°
2026-05-04 12:01 60.15967 10.81938 6983 ft 256 kts 313°
2026-05-04 12:01 60.17483 10.80052 7882 ft 261 kts 338°
2026-05-04 12:02 60.29669 10.82830 11593 ft 331 kts
2026-05-04 12:03 60.31958 10.83627 12405 ft 336 kts
2026-05-04 12:03 60.34291 10.84440 13104 ft 345 kts
2026-05-04 12:03 60.36671 10.85273 13842 ft 350 kts
2026-05-04 12:03 60.39098 10.86124 14510 ft 357 kts
2026-05-04 12:04 60.41557 10.86991 15290 ft 361 kts
2026-05-04 12:04 60.44046 10.87873 16030 ft 365 kts
2026-05-04 12:04 60.46570 10.88772 16785 ft 371 kts
2026-05-04 12:04 60.49127 10.89682 17527 ft 376 kts
2026-05-04 12:05 60.51727 10.90607 18199 ft 382 kts
2026-05-04 12:05 60.54356 10.91548 18878 ft 385 kts
2026-05-04 12:05 60.57004 10.92501 19519 ft 390 kts
2026-05-04 12:05 60.59698 10.93471 20109 ft 394 kts 359°
2026-05-04 12:06 60.62386 10.94431 20641 ft 400 kts
2026-05-04 12:06 60.65133 10.95426 20696 ft 401 kts
2026-05-04 12:06 60.67878 10.96433 20694 ft 401 kts
2026-05-04 12:06 60.70616 10.97444 20702 ft 401 kts
2026-05-04 12:07 60.73402 10.98432 20711 ft 400 kts 359°
2026-05-04 12:07 60.76120 10.99253 20704 ft 400 kts 358°
2026-05-04 12:07 60.78876 11.00022 20707 ft 401 kts 358°
2026-05-04 12:07 60.81660 11.00773 21127 ft 405 kts 357°
2026-05-04 12:08 60.84455 11.01540 21920 ft 405 kts 356°
2026-05-04 12:08 60.87262 11.02326 22511 ft 411 kts 356°
2026-05-04 12:08 60.90122 11.03133 23022 ft 419 kts 357°
2026-05-04 12:08 60.93035 11.03962 23436 ft 427 kts 357°
2026-05-04 12:09 60.95986 11.04818 23999 ft 428 kts 357°
2026-05-04 12:09 60.98930 11.05689 24631 ft 428 kts 357°
2026-05-04 12:09 61.01881 11.06564 25179 ft 430 kts 358°
2026-05-04 12:09 61.04855 11.07442 25673 ft 433 kts 358°
2026-05-04 12:10 61.07854 11.08326 26148 ft 436 kts 358°
2026-05-04 12:10 61.10859 11.09212 26625 ft 438 kts 358°
2026-05-04 12:10 61.13888 11.10108 27113 ft 440 kts 358°
2026-05-04 12:10 61.16933 11.11009 27571 ft 443 kts 358°
2026-05-04 12:11 61.19991 11.11917 28007 ft 445 kts 358°
2026-05-04 12:11 61.23025 11.12818 28459 ft 447 kts 358°
2026-05-04 12:11 61.26114 11.13740 28867 ft 450 kts 358°
2026-05-04 12:11 61.29220 11.14667 29297 ft 452 kts 358°
2026-05-04 12:12 61.32340 11.15599 29706 ft 454 kts 358°
2026-05-04 12:12 61.35478 11.16540 30035 ft 455 kts 358°
2026-05-04 12:12 61.38622 11.17484 30331 ft 458 kts 358°
2026-05-04 12:12 61.41797 11.18437 30603 ft 462 kts 359°
2026-05-04 12:13 61.44979 11.19396 30875 ft 464 kts 359°
2026-05-04 12:14 61.67434 11.26241 33613 ft 464 kts 359°
2026-05-04 12:15 61.70631 11.27220 33958 ft 463 kts 360°
2026-05-04 12:15 61.73826 11.28201 34261 ft 463 kts 360°
2026-05-04 12:15 61.77018 11.29182 34570 ft 463 kts
2026-05-04 12:15 61.80218 11.30166 34809 ft 464 kts
2026-05-04 12:16 61.83379 11.31142 35079 ft 464 kts
2026-05-04 12:16 61.86571 11.32132 35372 ft 463 kts
2026-05-04 12:16 61.89760 11.33123 35652 ft 463 kts
2026-05-04 12:16 61.92948 11.34115 35892 ft 463 kts
2026-05-04 12:17 61.96143 11.35110 36140 ft 464 kts
2026-05-04 12:17 61.99333 11.36106 36401 ft 463 kts
2026-05-04 12:17 62.02513 11.37102 36662 ft 463 kts
2026-05-04 12:17 62.05721 11.38106 36694 ft 467 kts
2026-05-04 12:18 62.12166 11.40131 36686 ft 466 kts
2026-05-04 12:18 62.18519 11.42149 36695 ft 459 kts
2026-05-04 12:19 62.24848 11.44157 36688 ft 459 kts
2026-05-04 12:19 62.31174 11.46170 36706 ft 459 kts
2026-05-04 12:20 62.37499 11.48192 36727 ft 460 kts
2026-05-04 12:20 62.43832 11.50226 36710 ft 460 kts
2026-05-04 12:21 62.50176 11.52274 36715 ft 461 kts
2026-05-04 12:21 62.56480 11.54319 36711 ft 461 kts
2026-05-04 12:22 62.62838 11.56389 36708 ft 461 kts
2026-05-04 12:22 62.69190 11.58466 36708 ft 462 kts
2026-05-04 12:23 62.75559 11.60558 36709 ft 462 kts
2026-05-04 12:23 62.81922 11.62657 36700 ft 462 kts
2026-05-04 12:24 62.88244 11.64753 36697 ft 462 kts
2026-05-04 12:24 62.94602 11.66869 36693 ft 462 kts
2026-05-04 12:25 63.00961 11.68994 36702 ft 463 kts
2026-05-04 12:25 63.07328 11.71131 36684 ft 463 kts
2026-05-04 12:26 63.13716 11.73285 36688 ft 464 kts
2026-05-04 12:26 63.20101 11.75448 36680 ft 464 kts
2026-05-04 12:27 63.26482 11.77620 36703 ft 464 kts
2026-05-04 12:27 63.32849 11.79795 36686 ft 465 kts
2026-05-04 12:28 63.39160 11.83375 36688 ft 471 kts 15°
2026-05-04 12:28 63.45342 11.88337 36672 ft 472 kts 16°
2026-05-04 12:29 63.51522 11.93385 36653 ft 473 kts 16°
2026-05-04 12:29 63.57682 11.98318 36685 ft 474 kts 15°
2026-05-04 12:30 63.63912 12.03256 36660 ft 475 kts 15°
2026-05-04 12:30 63.70150 12.08204 36660 ft 475 kts 15°
2026-05-04 12:31 63.76391 12.13179 36635 ft 476 kts 15°
2026-05-04 12:31 63.82630 12.18180 36654 ft 475 kts 15°
2026-05-04 12:32 63.91983 12.25725 36646 ft 475 kts 16°
2026-05-04 12:33 63.98211 12.30778 36619 ft 475 kts 16°
2026-05-04 12:33 64.01279 12.33276 36820 ft 474 kts 16°
2026-05-04 12:33 64.04387 12.35813 36832 ft 474 kts 16°
2026-05-04 12:34 64.10631 12.40928 36823 ft 473 kts 16°
2026-05-04 12:34 64.16823 12.46024 36794 ft 473 kts 16°
2026-05-04 12:35 64.22970 12.51107 36741 ft 472 kts 16°
2026-05-04 12:35 64.29162 12.56251 36686 ft 472 kts 16°
2026-05-04 12:36 64.35345 12.61412 36630 ft 472 kts 16°
2026-05-04 12:36 64.41526 12.66597 36611 ft 473 kts 16°
2026-05-04 12:37 64.47715 12.71813 36608 ft 473 kts 17°
2026-05-04 12:37 64.53905 12.77055 36603 ft 474 kts 17°
2026-05-04 12:38 64.60097 12.82326 36593 ft 473 kts 17°
2026-05-04 12:38 64.66283 12.87616 36593 ft 473 kts 17°
2026-05-04 12:39 64.72425 12.92894 36586 ft 473 kts 17°
2026-05-04 12:39 64.78610 12.98235 36588 ft 474 kts 17°
2026-05-04 12:40 64.84797 13.03604 36572 ft 473 kts 17°
2026-05-04 12:40 64.90962 13.08980 36589 ft 472 kts 17°
2026-05-04 12:41 64.97083 13.14344 36580 ft 472 kts 17°
2026-05-04 12:41 65.03230 13.19757 36603 ft 471 kts 17°
2026-05-04 12:42 65.09378 13.25197 36573 ft 471 kts 18°
2026-05-04 12:42 65.15516 13.30658 36568 ft 471 kts 18°
2026-05-04 12:43 65.21656 13.36145 36543 ft 471 kts 18°
2026-05-04 12:43 65.27789 13.41653 36559 ft 471 kts 18°
2026-05-04 12:44 65.33929 13.47196 36586 ft 472 kts 18°
2026-05-04 12:44 65.40082 13.52778 36563 ft 473 kts 18°
2026-05-04 12:45 65.46238 13.58392 36552 ft 473 kts 18°
2026-05-04 12:45 65.52355 13.63998 36559 ft 473 kts 18°
2026-05-04 12:46 65.57483 13.68719 36562 ft 474 kts 18°
2026-05-04 12:46 65.63644 13.74417 36586 ft 474 kts 18°
2026-05-04 12:47 65.69807 13.80146 36566 ft 474 kts 18°
2026-05-04 12:47 65.75962 13.85899 36554 ft 474 kts 18°
2026-05-04 12:48 65.82111 13.91675 36555 ft 473 kts 19°
2026-05-04 12:48 65.88252 13.97472 36539 ft 473 kts 19°
2026-05-04 12:49 65.94388 14.03295 36565 ft 472 kts 19°
2026-05-04 12:49 66.00515 14.09139 36542 ft 472 kts 19°
2026-05-04 12:50 66.06647 14.15020 36525 ft 472 kts 19°
2026-05-04 12:50 66.12717 14.20872 36537 ft 471 kts 19°
2026-05-04 12:51 66.18822 14.26784 36531 ft 470 kts 19°
2026-05-04 12:51 66.24913 14.32715 36547 ft 470 kts 19°
2026-05-04 12:52 66.31003 14.38676 36535 ft 471 kts 19°
2026-05-04 12:52 66.37101 14.44676 36525 ft 471 kts 19°
2026-05-04 12:53 66.43148 14.50658 36527 ft 470 kts 19°
2026-05-04 12:53 66.49238 14.56713 36531 ft 471 kts 19°
2026-05-04 12:54 66.55324 14.62796 36553 ft 471 kts 19°
2026-05-04 12:54 66.61407 14.68910 36536 ft 471 kts 19°
2026-05-04 12:55 66.67489 14.75054 36538 ft 471 kts 19°
2026-05-04 12:55 66.73567 14.81228 36527 ft 470 kts 20°
2026-05-04 12:56 66.79639 14.87428 36527 ft 470 kts 20°
2026-05-04 12:56 66.85687 14.93636 36547 ft 469 kts 20°
2026-05-04 12:57 66.91749 14.99893 36532 ft 469 kts 20°
2026-05-04 12:57 66.97758 15.06127 36528 ft 469 kts 20°
2026-05-04 12:58 67.03794 15.12425 36542 ft 468 kts 20°
2026-05-04 12:58 67.09834 15.18759 36532 ft 468 kts 20°
2026-05-04 12:59 67.15862 15.25115 36542 ft 468 kts 20°
2026-05-04 12:59 67.21878 15.31493 36541 ft 468 kts 20°
2026-05-04 13:00 67.27899 15.37912 36544 ft 468 kts 20°
2026-05-04 13:00 67.33916 15.44360 36538 ft 468 kts 20°
2026-05-04 13:01 67.39927 15.50839 36547 ft 468 kts 20°
2026-05-04 13:01 67.45910 15.57323 36566 ft 468 kts 21°
2026-05-04 13:01 67.48921 15.60602 36424 ft 471 kts 20°
2026-05-04 13:02 67.51957 15.63911 35959 ft 472 kts 21°
2026-05-04 13:02 67.54969 15.67206 35593 ft 467 kts 21°
2026-05-04 13:02 67.57948 15.70475 35186 ft 463 kts 21°
2026-05-04 13:02 67.60912 15.73734 34778 ft 460 kts 21°
2026-05-04 13:03 67.63857 15.76982 34349 ft 458 kts 21°
2026-05-04 13:03 67.66789 15.80227 33941 ft 456 kts 21°
2026-05-04 13:03 67.69708 15.83466 33508 ft 454 kts 21°
2026-05-04 13:03 67.72612 15.86696 33043 ft 451 kts 21°
2026-05-04 13:04 67.75492 15.89908 32615 ft 448 kts 21°
2026-05-04 13:04 67.78345 15.93098 32215 ft 444 kts 21°
2026-05-04 13:04 67.81172 15.96268 31813 ft 440 kts 21°
2026-05-04 13:04 67.83971 15.99414 31412 ft 436 kts 21°
2026-05-04 13:05 67.86753 16.02548 31031 ft 432 kts 21°
2026-05-04 13:05 67.89514 16.05665 30633 ft 430 kts 21°
2026-05-04 13:05 67.92253 16.08767 30250 ft 426 kts 21°
2026-05-04 13:05 67.94944 16.12018 29870 ft 424 kts 25°
2026-05-04 13:06 67.97551 16.15633 29483 ft 421 kts 27°
2026-05-04 13:06 68.00102 16.19387 29013 ft 418 kts 28°
2026-05-04 13:06 68.02627 16.23174 28618 ft 413 kts 28°
2026-05-04 13:06 68.05086 16.26867 28218 ft 408 kts 28°
2026-05-04 13:07 68.07548 16.30545 27830 ft 404 kts 28°
2026-05-04 13:07 68.10003 16.34195 27471 ft 400 kts 28°
2026-05-04 13:07 68.12431 16.37795 27051 ft 397 kts 28°
2026-05-04 13:07 68.14836 16.41357 26685 ft 393 kts 28°
2026-05-04 13:08 68.17224 16.44893 26274 ft 391 kts 28°
2026-05-04 13:08 68.19602 16.48411 25904 ft 387 kts 28°
2026-05-04 13:08 68.21949 16.51902 25539 ft 385 kts 28°
2026-05-04 13:08 68.24284 16.55386 25159 ft 382 kts 28°
2026-05-04 13:09 68.26599 16.58848 24794 ft 379 kts 28°
2026-05-04 13:09 68.28901 16.62297 24437 ft 377 kts 28°
2026-05-04 13:09 68.31175 16.65711 24072 ft 375 kts 28°
2026-05-04 13:09 68.33447 16.69129 23702 ft 373 kts 28°
2026-05-04 13:10 68.35677 16.72492 23358 ft 371 kts 28°
2026-05-04 13:10 68.37925 16.75889 22975 ft 369 kts 28°
2026-05-04 13:10 68.40166 16.79284 22544 ft 367 kts 28°
2026-05-04 13:10 68.42389 16.82661 22169 ft 364 kts 28°
2026-05-04 13:11 68.44594 16.86016 21806 ft 361 kts 28°
2026-05-04 13:11 68.46769 16.89333 21455 ft 357 kts 29°
2026-05-04 13:11 68.48934 16.92642 21094 ft 355 kts 29°
2026-05-04 13:11 68.51081 16.95931 20743 ft 352 kts 29°
2026-05-04 13:12 68.53212 16.99202 20396 ft 350 kts 29°
2026-05-04 13:12 68.55325 17.02453 20047 ft 348 kts 29°
2026-05-04 13:12 68.57428 17.05696 19687 ft 346 kts 29°
2026-05-04 13:12 68.59520 17.08928 19368 ft 344 kts 29°
2026-05-04 13:13 68.61573 17.12112 19024 ft 343 kts 29°
2026-05-04 13:13 68.63642 17.15327 18676 ft 341 kts 29°
2026-05-04 13:13 68.65731 17.18573 18348 ft 339 kts 28°
2026-05-04 13:13 68.67754 17.21725 18020 ft 339 kts 28°
2026-05-04 13:14 68.69806 17.24928 17651 ft 339 kts 29°
2026-05-04 13:14 68.71847 17.28122 17283 ft 337 kts 29°
2026-05-04 13:14 68.73882 17.31314 16933 ft 335 kts 29°
2026-05-04 13:14 68.75900 17.34486 16607 ft 333 kts 29°
2026-05-04 13:15 68.77903 17.37641 16289 ft 330 kts 29°
2026-05-04 13:15 68.79892 17.40781 15939 ft 329 kts 29°
2026-05-04 13:15 68.81873 17.43914 15609 ft 326 kts 29°
2026-05-04 13:15 68.83835 17.47025 15288 ft 324 kts 29°
2026-05-04 13:16 68.85790 17.50129 14955 ft 322 kts 29°
2026-05-04 13:16 68.87726 17.53211 14645 ft 320 kts 29°
2026-05-04 13:16 68.89620 17.56232 14331 ft 318 kts 29°
2026-05-04 13:16 68.91530 17.59284 14020 ft 316 kts 29°
2026-05-04 13:17 68.93428 17.62323 13709 ft 314 kts 29°
2026-05-04 13:17 68.95312 17.65345 13398 ft 312 kts 30°
2026-05-04 13:17 68.97189 17.68363 13059 ft 310 kts 30°
2026-05-04 13:17 68.99048 17.71358 12747 ft 307 kts 30°
2026-05-04 13:18 69.00893 17.74333 12431 ft 305 kts 30°
2026-05-04 13:18 69.02725 17.77294 12128 ft 303 kts 30°
2026-05-04 13:18 69.04538 17.80232 11803 ft 301 kts 30°
2026-05-04 13:18 69.06334 17.83180 11509 ft 298 kts 33°
2026-05-04 13:19 69.07922 17.86805 11381 ft 291 kts 43°
2026-05-04 13:19 69.09354 17.90774 11102 ft 289 kts 45°
2026-05-04 13:19 69.10754 17.94803 10793 ft 288 kts 46°
2026-05-04 13:19 69.12151 17.98820 10492 ft 287 kts 45°
2026-05-04 13:20 69.13547 18.02796 10198 ft 286 kts 45°
2026-05-04 13:20 69.14947 18.06759 9908 ft 285 kts 45°
2026-05-04 13:20 69.16328 18.10647 9613 ft 284 kts 45°
2026-05-04 13:20 69.17705 18.14517 9481 ft 277 kts 45°
2026-05-04 13:21 69.19070 18.18347 9150 ft 277 kts 45°
2026-05-04 13:21 69.20434 18.22177 8852 ft 276 kts 45°
2026-05-04 13:21 69.21791 18.25993 8560 ft 275 kts 45°
2026-05-04 13:21 69.23141 18.29792 8279 ft 273 kts 45°
2026-05-04 13:22 69.24478 18.33562 8000 ft 272 kts 46°
2026-05-04 13:22 69.25814 18.37334 7709 ft 271 kts 46°
2026-05-04 13:22 69.27145 18.41093 7423 ft 270 kts 45°
2026-05-04 13:22 69.28470 18.44842 7145 ft 269 kts 46°
2026-05-04 13:23 69.29781 18.48565 6973 ft 265 kts 46°
2026-05-04 13:23 69.31070 18.52231 6754 ft 261 kts 46°
2026-05-04 13:23 69.32353 18.55721 6593 ft 255 kts 39°
2026-05-04 13:23 69.33748 18.58551 6523 ft 239 kts 34°
2026-05-04 13:24 69.35097 18.61067 6402 ft 226 kts 33°
2026-05-04 13:24 69.36378 18.63475 6222 ft 217 kts 34°
2026-05-04 13:24 69.37631 18.65870 5902 ft 216 kts 34°
2026-05-04 13:25 69.40076 18.70615 5258 ft 208 kts 34°
2026-05-04 13:25 69.41263 18.72932 5120 ft 206 kts 35°
2026-05-04 13:25 69.42520 18.74910 4996 ft 210 kts 15°
2026-05-04 13:25 69.43963 18.75630 4994 ft 212 kts 12°
2026-05-04 13:26 69.45412 18.76574 4989 ft 215 kts 14°
2026-05-04 13:26 69.46846 18.77562 4978 ft 209 kts 14°
2026-05-04 13:26 69.48229 18.78499 4962 ft 199 kts 14°
2026-05-04 13:26 69.49535 18.79374 4907 ft 196 kts 14°
2026-05-04 13:27 69.50886 18.80275 4578 ft 199 kts 13°
2026-05-04 13:27 69.52232 18.81171 4237 ft 198 kts 14°
2026-05-04 13:27 69.53564 18.82059 3849 ft 196 kts 14°
2026-05-04 13:27 69.54869 18.82928 3478 ft 188 kts 14°
2026-05-04 13:28 69.56120 18.83762 3133 ft 181 kts 15°
2026-05-04 13:28 69.57313 18.84555 2827 ft 169 kts 14°
2026-05-04 13:28 69.58420 18.85292 2499 ft 157 kts 14°
2026-05-04 13:28 69.59420 18.85958 2221 ft 141 kts 14°
2026-05-04 13:29 69.60359 18.86585 1967 ft 137 kts 15°
2026-05-04 13:29 69.61266 18.87178 1691 ft 133 kts 13°
2026-05-04 13:29 69.62167 18.87756 1411 ft 130 kts 15°
2026-05-04 13:29 69.63037 18.88361 1214 ft 131 kts 14°
2026-05-04 13:30 69.63923 18.88950 1028 ft 129 kts 14°
2026-05-04 13:30 69.64802 18.89546 746 ft 134 kts 14°
2026-05-04 13:30 69.65704 18.90106 488 ft 130 kts 13°
2026-05-04 13:30 69.66568 18.90679 254 ft 125 kts 14°
2026-05-04 13:31 69.67380 18.91198 122 ft 112 kts 14°
2026-05-04 13:31 69.68042 18.91692 32 ft 61 kts 14°
2026-05-04 13:31 69.68429 18.91956 25 ft 43 kts 13°
2026-05-04 13:31 69.68613 18.92081 22 ft 25 kts 12°
2026-05-04 13:32 69.68742 18.92108 20 ft 13 kts 322°
2026-05-04 13:32 69.68774 18.91880 19 ft 12 kts 284°
2026-05-04 13:32 69.68741 18.91691 19 ft 12 kts 198°
2026-05-04 13:32 69.68660 18.91641 23 ft 12 kts 192°
2026-05-04 13:33 69.68581 18.91587 27 ft 11 kts 194°
2026-05-04 13:33 69.68499 18.91529 25 ft 13 kts 193°
2026-05-04 13:33 69.68400 18.91499 25 ft 15 kts 181°
2026-05-04 13:33 69.68291 18.91475 27 ft 16 kts 193°
2026-05-04 13:34 69.68189 18.91408 29 ft 15 kts 193°
2026-05-04 13:34 69.68110 18.91356 32 ft 11 kts 193°
2026-05-04 13:34 69.68071 18.91312 32 ft 4 kts 226°
2026-05-04 13:34 69.68068 18.91224 32 ft 5 kts 277°
2026-05-04 13:35 69.68076 18.91134 34 ft 5 kts 283°
2026-05-04 13:35 69.68087 18.90992 34 ft 2 kts 284°
2026-05-04 13:35 69.68087 18.90991 34 ft 0 kts 284°